Location: Grandview
(34.8900°N, 117.1058°W)
Time: 15:02:30
(UTC-08:00)

Envisat - Pass Details

Date: 16 October 2017
Orbit: 764 x 766 km, 98.2° (Epoch: 11 December)

Event Time Altitude Azimuth Distance (km) Brightness Sun altitude
Exits shadow 21:06:39 19° 333° (NNW) 1,776 5.2 -36.4°
Drops below altitude 10° 21:08:04 10° 338° (NNW) 2,308 5.8 -36.7°
Sets 21:10:26 0° 343° (NNW) 3,238 6.6 -37.1°
